Погода в Прокопье

Россия / Кировская область     58°54′31″N   50°35′44″E
темп.,
°C
ветер,
м/с
пор.,
м/с
влажн.,
%
обл.,
%
осадки,
мм/ч
давл.,
гПа
погр.,
м
13 апреля, вт
вт1300:000ю2598100 0.0 103991
03:00+1ю2598100 0.0 1039180
06:00+2ю3898100 0.0 1038277
09:00+4ююв31098100 0.0 1036331
12:00+6ю31097100 0.0 1034388
15:00+6ю31099100 0.0 1033367
18:00+6ю31099100 0.0 1031411
21:00+6юз4994100 0.1 1031464
14 апреля, ср
ср1400:00+7юз4893100 0.0 1030426
03:00+4ююз279898 0.0 1030133
06:00+5ююз379898 0.0 1029224
09:00+9ююз3775100 0.0 1028313
12:00+14ююз475868 0.0 1027574
15:00+15ююз475612 0.0 1026779
18:00+11ююз397623 0.0 1024260
21:00+8ююз310925 0.0 1024196
15 апреля, чт
чт1500:00+7ююз299225 0.0 1023173
03:00+5ююз27925 0.0 1022131
06:00+6юз26924 0.0 1021157
09:00+12зюз247134 0.0 1020420
12:00+15зюз245510 0.0 1019913
15:00+16зсз345050 0.0 10181621
18:00+7ссв51083100 0.0 1021528
21:00
16 апреля, пт
пт1600:00+4св4987100 0.0 1023681
03:00+4ссв4985100 0.0 1024655
06:00+2св410733 0.0 1025528
09:00+6св46485 0.0 10251048
12:00+8св45395 0.0 10251388
15:00+9ссв45375 0.0 10251631
18:00+7ссв25485 0.0 1025179
21:00+3с25634 0.0 1025100
17 апреля, сб
сб1700:00+2с22713 0.0 102613
03:000сз23755 0.0 102662
06:00+1с3108074 0.0 1026445
09:00+4с585114 0.0 10261388
12:00+6с583776 0.0 10272094
15:00+6с5735100 0.0 10272229
18:00+4ссв374150 0.0 1028601
21:000всв225435 0.0 102930